This is the latest recevied weather packets stored in our database for station/object PY4BN-13. If no packets are shown the sender has not sent any weather packets the latest 10 day(s).
| Time | Temp. | Humidity | Pressure | Rain* | Wind** | Luminosity | Snow |
|---|---|---|---|---|---|---|---|
| 1788141600 | 80° F | 59% | 680 mmHg | - | - | - | - |
| 1788140700 | 80° F | 59% | 680 mmHg | - | - | - | - |
| 1788139800 | 80° F | 59% | 680.2 mmHg | - | - | - | - |
| 1788138900 | 81° F | 58% | 680.1 mmHg | - | - | - | - |
| 1788138000 | 81° F | 57% | 680.2 mmHg | - | - | - | - |
| 1788137100 | 80° F | 58% | 680.2 mmHg | - | - | - | - |
| 1788136200 | 80° F | 58% | 680.1 mmHg | - | - | - | - |
| 1788135300 | 80° F | 58% | 680 mmHg | - | - | - | - |
| 1788134400 | 80° F | 58% | 680 mmHg | - | - | - | - |
| 1788133500 | 80° F | 58% | 680.1 mmHg | - | - | - | - |
| 1788132600 | 80° F | 58% | 679.9 mmHg | - | - | - | - |
| 1788131700 | 80° F | 58% | 679.7 mmHg | - | - | - | - |
| 1788130800 | 80° F | 58% | 679.7 mmHg | - | - | - | - |
| 1788129900 | 80° F | 58% | 679.7 mmHg | - | - | - | - |
| 1788129000 | 80° F | 58% | 679.6 mmHg | - | - | - | - |
| 1788128100 | 80° F | 59% | 679.3 mmHg | - | - | - | - |
| 1788127200 | 80° F | 59% | 679.2 mmHg | - | - | - | - |
| 1788126300 | 80° F | 58% | 679.2 mmHg | - | - | - | - |
| 1788125400 | 80° F | 57% | 679 mmHg | - | - | - | - |
| 1788124500 | 81° F | 53% | 678.8 mmHg | - | - | - | - |
| 1788123600 | 80° F | 54% | 678.7 mmHg | - | - | - | - |
| 1788122700 | 80° F | 56% | 678.9 mmHg | - | - | - | - |
| 1788121800 | 80° F | 54% | 678.9 mmHg | - | - | - | - |
| 1788120900 | 80° F | 55% | 678.9 mmHg | - | - | - | - |
| 1788120000 | 80° F | 52% | 678.7 mmHg | - | - | - | - |
* Rain since midnight (hover to see other rain measurements)
** Current wind speed in m/s (hover to see current wind gust speed)